TimePDT,TemperatureF,Dew PointF,Humidity,Sea Level PressureIn,VisibilityMPH,Wind Direction,Wind SpeedMPH,Gust SpeedMPH,PrecipitationIn,Events,Conditions,WindDirDegrees,DateUTC
12:55 AM,41.0,30.9,67,29.98,10.0,South,4.6,-,N/A,,Clear,170,2013-04-01 07:55:00
1:55 AM,41.0,30.9,67,29.99,10.0,Calm,Calm,-,N/A,,Partly Cloudy,0,2013-04-01 08:55:00
2:55 AM,39.0,30.9,73,30.00,10.0,South,3.5,-,N/A,,Mostly Cloudy,170,2013-04-01 09:55:00
3:55 AM,39.0,30.9,73,30.00,10.0,South,5.8,-,N/A,,Mostly Cloudy,180,2013-04-01 10:55:00
4:55 AM,39.0,30.9,73,30.01,10.0,Calm,Calm,-,N/A,,Mostly Cloudy,0,2013-04-01 11:55:00
5:55 AM,37.9,30.9,76,30.02,10.0,Calm,Calm,-,N/A,,Mostly Cloudy,0,2013-04-01 12:55:00
6:55 AM,37.0,30.0,76,30.03,10.0,Calm,Calm,-,N/A,,Mostly Cloudy,0,2013-04-01 13:55:00
7:55 AM,41.0,32.0,70,30.04,10.0,Calm,Calm,-,N/A,,Mostly Cloudy,0,2013-04-01 14:55:00
8:55 AM,46.0,33.1,61,30.04,10.0,ENE,3.5,-,N/A,,Scattered Clouds,60,2013-04-01 15:55:00
9:55 AM,51.1,30.9,46,30.04,10.0,Calm,Calm,-,N/A,,Scattered Clouds,0,2013-04-01 16:55:00
10:55 AM,52.0,30.0,43,30.04,10.0,Calm,Calm,-,N/A,,Mostly Cloudy,0,2013-04-01 17:55:00
11:55 AM,54.0,28.9,38,30.04,10.0,East,3.5,-,N/A,,Mostly Cloudy,100,2013-04-01 18:55:00
12:55 PM,57.0,27.0,32,30.03,10.0,WNW,15.0,21.9,N/A,,Mostly Cloudy,290,2013-04-01 19:55:00
1:55 PM,57.0,27.0,32,30.01,10.0,NW,15.0,25.3,N/A,,Mostly Cloudy,320,2013-04-01 20:55:00
2:55 PM,57.0,28.0,33,30.01,10.0,West,19.6,23.0,0.00,Rain,Light Rain,280,2013-04-01 21:55:00
3:55 PM,57.9,28.0,32,30.02,10.0,WSW,13.8,-,0.00,,Mostly Cloudy,250,2013-04-01 22:55:00
4:55 PM,57.0,28.9,34,30.01,10.0,West,10.4,16.1,N/A,,Mostly Cloudy,260,2013-04-01 23:55:00
5:29 PM,55.4,33.8,44,30.07,10.0,WNW,10.4,19.6,0.00,,Mostly Cloudy,300,2013-04-02 00:29:00
5:55 PM,57.0,32.0,39,30.03,10.0,WNW,12.7,-,0.00,,Mostly Cloudy,300,2013-04-02 00:55:00
6:55 PM,54.0,33.1,45,30.05,10.0,WNW,11.5,-,N/A,,Scattered Clouds,290,2013-04-02 01:55:00
7:55 PM,52.0,33.1,49,30.07,10.0,NW,11.5,-,N/A,,Mostly Cloudy,310,2013-04-02 02:55:00
8:55 PM,48.9,37.0,64,30.09,10.0,NNE,9.2,-,N/A,,Scattered Clouds,20,2013-04-02 03:55:00
9:55 PM,46.9,34.0,61,30.09,10.0,North,10.4,-,N/A,,Scattered Clouds,360,2013-04-02 04:55:00
10:55 PM,46.9,33.1,59,30.10,10.0,NNW,9.2,-,N/A,,Scattered Clouds,340,2013-04-02 05:55:00
11:55 PM,45.0,34.0,65,30.10,10.0,NNE,4.6,-,N/A,,Scattered Clouds,20,2013-04-02 06:55:00